Imperial, CA

11:33 PM PDT on March 24, 2017 (GMT -0700)
Imperial County

Weather History for KIPL - April, 2013

Change the Weather History Date:

Wednesday, April 24, 2013

  Actual Average Record
Temperature  
Mean Temperature 76 °F -  
Max Temperature 91 °F 87 °F 100 °F (1949)
Min Temperature 60 °F 57 °F 48 °F (1960)
Cooling Degree Days 10    
Growing Degree Days 26 (Base 50)    
Moisture  
Dew Point 43 °F    
Average Humidity 37    
Maximum Humidity 68    
Minimum Humidity 13    
Precipitation  
Precipitation 0.00 in - - ()
Sea Level Pressure  
Sea Level Pressure 29.77 in    
Wind  
Wind Speed 7 mph (SSE)    
Max Wind Speed 17 mph    
Max Gust Speed 22 mph    
Visibility 10 miles    
Events      
Averages and records for this station are not official NWS values.
T = Trace of Precipitation, MM = Missing Value Source: NWS Daily Summary

Daily Weather History Graph

Daily Weather History Graph

Search for Another Location

Airport or City:

Trip Planner

Search our weather history database for the weather conditions in past years. The results will help you decide how hot, cold, wet, or windy it might be!

Date:

Astronomy

Apr. 24, 2013 Rise Set
Actual Time 6:01 AM PDT 7:19 PM PDT
Civil Twilight 5:36 AM PDT 7:45 PM PDT
Nautical Twilight 5:05 AM PDT 8:16 PM PDT
Astronomical Twilight 4:33 AM PDT 8:48 PM PDT
Moon 6:28 PM PDT (4/24) 5:04 AM PDT (4/24)
Length of Visible Light 14h 09m
Length of Day
13h 17m
Waxing Gibbous, 98% of the Moon is Illuminated
Apr 24
Waxing Gibbous
Apr 25
Full
May 2
Last Quarter
May 9
New
May 17
First Quarter

Hourly Weather History & Observations

Time (PDT) Temp. Heat Index Dew Point Humidity Pressure Visibility Wind Dir Wind Speed Gust Speed Precip Events Conditions
12:53 AM 68.0 °F - 36.0 °F 31% 29.79 in 10.0 mi Calm Calm - N/A   Clear
1:53 AM 60.1 °F - 43.0 °F 53% 29.78 in 10.0 mi West 3.5 mph - N/A   Clear
2:53 AM 64.4 °F - 41.0 °F 42% 29.77 in 10.0 mi Calm Calm - N/A   Clear
3:53 AM 62.1 °F - 39.0 °F 43% 29.78 in 10.0 mi SW 3.5 mph - N/A   Clear
4:53 AM 64.0 °F - 37.0 °F 37% 29.77 in 10.0 mi Calm Calm - N/A   Clear
5:53 AM 66.9 °F - 24.1 °F 20% 29.78 in 10.0 mi East 6.9 mph - N/A   Clear
6:53 AM 61.0 °F - 33.1 °F 35% 29.80 in 10.0 mi East 6.9 mph - N/A   Clear
7:53 AM 64.9 °F - 54.0 °F 68% 29.83 in 10.0 mi SE 8.1 mph - N/A   Unknown
8:53 AM 71.1 °F - 59.0 °F 66% 29.83 in 10.0 mi SE 10.4 mph - N/A   Clear
9:53 AM 75.9 °F - 59.0 °F 56% 29.84 in 10.0 mi East 6.9 mph - N/A   Clear
10:53 AM - - - N/A% 29.85 in 10.0 mi ESE 9.2 mph - N/A   Clear
11:53 AM 82.9 °F 81.8 °F 53.1 °F 36% 29.83 in 10.0 mi North - - N/A   Clear
12:53 PM 84.9 °F - 50.0 °F 30% 29.81 in 10.0 mi ESE 8.1 mph - N/A   Clear
1:53 PM 90.0 °F - 43.0 °F 19% 29.76 in 10.0 mi ESE 15.0 mph - N/A   Unknown
2:53 PM 91.9 °F - 37.0 °F 15% 29.73 in - ESE 16.1 mph - N/A   Clear
3:53 PM 91.9 °F - 37.0 °F 15% 29.71 in 10.0 mi ESE 16.1 mph 21.9 mph N/A   Clear
4:53 PM 91.0 °F - 42.1 °F 18% 29.69 in 10.0 mi SE 17.3 mph - N/A   Clear
5:53 PM 89.1 °F - 35.1 °F 15% 29.68 in 10.0 mi SE 16.1 mph - N/A   Clear
6:53 PM 84.0 °F - 28.0 °F 13% 29.70 in 10.0 mi SE 16.1 mph - N/A   Clear
7:53 PM 73.0 °F - 46.9 °F 39% 29.72 in 10.0 mi West 12.7 mph - N/A   Clear
8:53 PM 69.1 °F - 48.9 °F 49% 29.74 in 10.0 mi WSW 9.2 mph - N/A   Clear
9:53 PM 64.9 °F - 48.9 °F 56% 29.77 in 10.0 mi West 8.1 mph - N/A   Clear
10:53 PM 66.0 °F - 46.9 °F 50% 29.77 in 10.0 mi West 11.5 mph - N/A   Clear
11:53 PM 64.9 °F - 45.0 °F 48% 29.77 in 10.0 mi West 12.7 mph - N/A   Clear